Location: Biharia
(46.4333°N, 22.8000°E)
Time: 01:04:49
(UTC+00:00)

FENGYUN 1C DEB - Pass Details

Date: 11 August 2022
Orbit: 796 x 915 km, 98.9° (Epoch: 28 September)

Event Time Altitude Azimuth Distance (km) Brightness Sun altitude
Rises 00:47:34 0° 4° (N) 3,473 ? -21.3°
Reaches altitude 10° 00:50:27 10° 350° (N) 2,510 ? -21.0°
Maximum altitude 00:54:37 22° 302° (WNW) 1,758 ? -20.6°
Enters shadow 00:56:28 19° 274° (W) 1,910 ? -20.4°
